TimePST,TemperatureF,Dew PointF,Humidity,Sea Level PressureIn,VisibilityMPH,Wind Direction,Wind SpeedMPH,Gust SpeedMPH,PrecipitationIn,Events,Conditions,WindDirDegrees,DateUTC
12:15 AM,35.6,28.4,75,30.22,10.0,Calm,Calm,-,N/A,,Clear,0,2014-01-06 08:15:00
12:35 AM,35.6,26.6,70,30.23,10.0,NNW,3.5,-,N/A,,Clear,340,2014-01-06 08:35:00
12:55 AM,32.0,24.8,75,30.22,10.0,Calm,Calm,-,N/A,,Clear,0,2014-01-06 08:55:00
1:15 AM,35.6,26.6,70,30.23,10.0,Calm,Calm,-,N/A,,Clear,0,2014-01-06 09:15:00
1:35 AM,35.6,26.6,70,30.23,10.0,Calm,Calm,-,N/A,,Clear,0,2014-01-06 09:35:00
1:55 AM,32.0,24.8,75,30.23,10.0,Calm,Calm,-,N/A,,Clear,0,2014-01-06 09:55:00
2:15 AM,32.0,26.6,80,30.24,10.0,Calm,Calm,-,N/A,,Clear,0,2014-01-06 10:15:00
2:35 AM,35.6,26.6,70,30.24,10.0,Calm,Calm,-,N/A,,Clear,0,2014-01-06 10:35:00
2:55 AM,32.0,24.8,75,30.24,10.0,Calm,Calm,-,N/A,,Clear,0,2014-01-06 10:55:00
3:15 AM,32.0,26.6,80,30.24,10.0,Calm,Calm,-,N/A,,Clear,0,2014-01-06 11:15:00
3:35 AM,35.6,28.4,75,30.24,10.0,Calm,Calm,-,N/A,,Clear,0,2014-01-06 11:35:00
3:55 AM,32.0,24.8,75,30.24,10.0,Calm,Calm,-,N/A,,Clear,0,2014-01-06 11:55:00
4:15 AM,32.0,26.6,80,30.24,10.0,Calm,Calm,-,N/A,,Clear,0,2014-01-06 12:15:00
4:35 AM,32.0,26.6,80,30.24,10.0,Calm,Calm,-,N/A,,Clear,0,2014-01-06 12:35:00
4:55 AM,33.8,26.6,75,30.23,10.0,SSW,3.5,-,N/A,,Clear,200,2014-01-06 12:55:00
5:15 AM,35.6,26.6,70,30.24,10.0,Calm,Calm,-,N/A,,Clear,0,2014-01-06 13:15:00
5:35 AM,33.8,26.6,75,30.25,10.0,North,3.5,-,N/A,,Clear,350,2014-01-06 13:35:00
5:55 AM,33.8,28.4,81,30.24,10.0,Calm,Calm,-,N/A,,Clear,0,2014-01-06 13:55:00
6:15 AM,33.8,28.4,81,30.25,10.0,SSW,3.5,-,N/A,,Unknown,200,2014-01-06 14:15:00
6:35 AM,35.6,28.4,75,30.25,10.0,Calm,Calm,-,N/A,,Unknown,0,2014-01-06 14:35:00
6:55 AM,33.8,28.4,81,30.25,10.0,Calm,Calm,-,N/A,,Unknown,0,2014-01-06 14:55:00
7:15 AM,33.8,28.4,81,30.26,10.0,Calm,Calm,-,N/A,,Unknown,0,2014-01-06 15:15:00
7:35 AM,33.8,28.4,81,30.27,10.0,Calm,Calm,-,N/A,,Unknown,0,2014-01-06 15:35:00
7:55 AM,35.6,28.4,75,30.28,10.0,Calm,Calm,-,N/A,,Clear,0,2014-01-06 15:55:00
8:15 AM,35.6,28.4,75,30.28,10.0,Calm,Calm,-,N/A,,Clear,0,2014-01-06 16:15:00
8:35 AM,39.2,32.0,75,30.28,10.0,South,8.1,-,N/A,,Clear,180,2014-01-06 16:35:00
8:55 AM,44.6,32.0,61,30.29,10.0,SSW,5.8,-,N/A,,Clear,210,2014-01-06 16:55:00
9:15 AM,41.0,33.8,76,30.30,10.0,Calm,Calm,-,N/A,,Clear,0,2014-01-06 17:15:00
9:35 AM,44.6,33.8,66,30.30,10.0,South,5.8,-,N/A,,Clear,190,2014-01-06 17:35:00
9:55 AM,51.8,28.4,41,30.30,10.0,SSW,6.9,-,N/A,,Clear,200,2014-01-06 17:55:00
10:15 AM,51.8,30.2,44,30.29,10.0,SSW,6.9,-,N/A,,Clear,200,2014-01-06 18:15:00
10:35 AM,50.0,28.4,43,30.29,10.0,SSW,9.2,-,N/A,,Clear,200,2014-01-06 18:35:00
10:55 AM,51.8,26.6,38,30.29,10.0,SSW,11.5,-,N/A,,Clear,200,2014-01-06 18:55:00
11:15 AM,51.8,28.4,41,30.29,10.0,South,8.1,-,N/A,,Clear,190,2014-01-06 19:15:00
11:35 AM,53.6,30.2,41,30.28,10.0,South,6.9,-,N/A,,Clear,190,2014-01-06 19:35:00
11:55 AM,53.6,28.4,38,30.27,10.0,SSE,4.6,-,N/A,,Clear,160,2014-01-06 19:55:00
12:15 PM,53.6,28.4,38,30.25,10.0,ESE,6.9,-,N/A,,Clear,120,2014-01-06 20:15:00
12:35 PM,53.6,32.0,44,30.23,10.0,SSE,5.8,-,N/A,,Clear,150,2014-01-06 20:35:00
12:55 PM,57.2,26.6,31,30.23,10.0,SSW,10.4,-,N/A,,Clear,200,2014-01-06 20:55:00
1:15 PM,57.2,26.6,31,30.21,10.0,SSE,4.6,-,N/A,,Clear,150,2014-01-06 21:15:00
1:35 PM,57.2,28.4,33,30.21,10.0,South,8.1,-,N/A,,Clear,190,2014-01-06 21:35:00
1:55 PM,57.2,26.6,31,30.20,10.0,SSW,9.2,-,N/A,,Clear,200,2014-01-06 21:55:00
2:15 PM,57.2,28.4,33,30.20,10.0,SSW,10.4,-,N/A,,Clear,210,2014-01-06 22:15:00
2:35 PM,55.4,32.0,41,30.21,10.0,SSW,9.2,-,N/A,,Clear,210,2014-01-06 22:35:00
2:55 PM,55.4,32.0,41,30.20,10.0,SSW,8.1,-,N/A,,Clear,210,2014-01-06 22:55:00
3:15 PM,55.4,32.0,41,30.20,10.0,SSW,6.9,-,N/A,,Clear,210,2014-01-06 23:15:00
3:35 PM,55.4,32.0,41,30.20,10.0,SSW,6.9,-,N/A,,Clear,210,2014-01-06 23:35:00
3:55 PM,55.4,33.8,44,30.19,10.0,SW,6.9,-,N/A,,Clear,220,2014-01-06 23:55:00
4:15 PM,55.4,32.0,41,30.19,10.0,SSW,6.9,-,N/A,,Clear,210,2014-01-07 00:15:00
4:35 PM,55.4,33.8,44,30.19,10.0,SSW,6.9,-,N/A,,Clear,210,2014-01-07 00:35:00
4:55 PM,55.4,32.0,41,30.18,10.0,SW,6.9,-,N/A,,Clear,220,2014-01-07 00:55:00
5:15 PM,55.4,32.0,41,30.19,10.0,SW,6.9,-,N/A,,Clear,230,2014-01-07 01:15:00
5:35 PM,55.4,32.0,41,30.19,10.0,SW,6.9,-,N/A,,Clear,230,2014-01-07 01:35:00
5:55 PM,55.4,32.0,41,30.20,10.0,SW,6.9,-,N/A,,Clear,220,2014-01-07 01:55:00
6:15 PM,53.6,33.8,47,30.20,10.0,SW,5.8,-,N/A,,Clear,220,2014-01-07 02:15:00
6:35 PM,53.6,35.6,51,30.20,10.0,SSW,5.8,-,N/A,,Clear,200,2014-01-07 02:35:00
6:55 PM,51.8,35.6,54,30.21,10.0,Calm,Calm,-,N/A,,Clear,0,2014-01-07 02:55:00
7:15 PM,50.0,32.0,50,30.22,10.0,NNW,3.5,-,N/A,,Clear,340,2014-01-07 03:15:00
7:35 PM,48.2,32.0,54,30.22,10.0,NNW,4.6,-,N/A,,Clear,340,2014-01-07 03:35:00
7:55 PM,48.2,32.0,54,30.22,10.0,Calm,Calm,-,N/A,,Clear,0,2014-01-07 03:55:00
8:15 PM,48.2,33.8,58,30.22,10.0,Calm,Calm,-,N/A,,Clear,0,2014-01-07 04:15:00
8:35 PM,48.2,35.6,62,30.21,10.0,South,5.8,-,N/A,,Clear,180,2014-01-07 04:35:00
8:55 PM,48.2,33.8,58,30.20,10.0,South,5.8,-,N/A,,Clear,170,2014-01-07 04:55:00
9:15 PM,48.2,33.8,58,30.20,10.0,South,3.5,-,N/A,,Clear,180,2014-01-07 05:15:00
9:35 PM,48.2,35.6,62,30.20,10.0,Calm,Calm,-,N/A,,Clear,0,2014-01-07 05:35:00
9:55 PM,48.2,35.6,62,30.20,10.0,SSE,3.5,-,N/A,,Clear,150,2014-01-07 05:55:00
10:15 PM,46.4,35.6,66,30.19,10.0,Calm,Calm,-,N/A,,Clear,0,2014-01-07 06:15:00
10:35 PM,46.4,35.6,66,30.20,10.0,South,6.9,-,N/A,,Clear,190,2014-01-07 06:35:00
10:55 PM,44.6,33.8,66,30.20,10.0,South,6.9,-,N/A,,Clear,180,2014-01-07 06:55:00
11:15 PM,44.6,35.6,71,30.21,10.0,SSW,5.8,-,N/A,,Clear,200,2014-01-07 07:15:00
11:35 PM,44.6,35.6,71,30.21,10.0,Calm,Calm,-,N/A,,Clear,0,2014-01-07 07:35:00
11:55 PM,41.0,32.0,70,30.21,10.0,Calm,Calm,-,N/A,,Clear,0,2014-01-07 07:55:00